Eureka, NV

5:46 PM PDT on April 25, 2017 (GMT -0700)
Eureka

Weather History for KP68 - September, 2012

Change the Weather History Date:

Monday, September 24, 2012

  Actual Average Record
Temperature  
Mean Temperature 52 °F 55 °F  
Max Temperature 62 °F 74 °F 87 °F (2015)
Min Temperature 41 °F 36 °F 13 °F (1984)
Degree Days  
Heating Degree Days 13 10  
Month to date heating degree days 47 147  
Since 1 July heating degree days 47 194  
Cooling Degree Days 0 0  
Month to date cooling degree days 21 9  
Year to date cooling degree days 529 286  
Growing Degree Days 3 (Base 50)    
Moisture  
Dew Point 45 °F    
Average Humidity 74    
Maximum Humidity 93    
Minimum Humidity 55    
Precipitation  
Precipitation 0.36 in 0.01 in 0.36 in (2012)
Month to date precipitation 0.81 0.46  
Year to date precipitation 5.47 6.75  
Sea Level Pressure  
Sea Level Pressure 29.99 in    
Wind  
Wind Speed 6 mph (SSE)    
Max Wind Speed 20 mph    
Max Gust Speed 25 mph    
T = Trace of Precipitation, MM = Missing Value Source: NWS Daily Summary

Daily Weather History Graph

Daily Weather History Graph

Search for Another Location

Airport or City:

Trip Planner

Search our weather history database for the weather conditions in past years. The results will help you decide how hot, cold, wet, or windy it might be!

Date:

Astronomy

Sep. 24, 2012 Rise Set
Actual Time 6:33 AM PDT 6:36 PM PDT
Civil Twilight 6:07 AM PDT 7:03 PM PDT
Nautical Twilight 5:35 AM PDT 7:34 PM PDT
Astronomical Twilight 5:03 AM PDT 8:06 PM PDT
Moon 3:24 PM PDT (9/24) 12:56 AM PDT (9/24)
Length of Visible Light 12h 56m
Length of Day
12h 02m
Waxing Gibbous, 71% of the Moon is Illuminated
Sep 24
Waxing Gibbous
Sep 29
Full
Oct 8
Last Quarter
Oct 15
New
Oct 21
First Quarter

Hourly Weather History & Observations

Time (PDT) Temp. Windchill Dew Point Humidity Pressure Visibility Wind Dir Wind Speed Gust Speed Precip Events Conditions
12:53 AM 50.0 °F - 48.0 °F 93% 30.04 in - ESE 4.6 mph - 0.08 in   Unknown
1:53 AM 51.1 °F - 48.0 °F 89% 30.01 in - South 9.2 mph - 0.09 in   Unknown
2:53 AM 51.1 °F - 46.0 °F 83% 29.93 in - SE 12.7 mph - 0.11 in   Unknown
3:53 AM 51.1 °F - 46.0 °F 83% 29.92 in - North - - N/A   Unknown
4:53 AM 52.0 °F - 45.0 °F 77% 29.93 in - SE 11.5 mph - N/A   Unknown
5:53 AM 50.0 °F - 46.9 °F 89% 29.94 in - SSE 4.6 mph - N/A   Unknown
6:53 AM 48.9 °F - 46.9 °F 93% 29.95 in - NNW 5.8 mph - N/A   Unknown
7:53 AM 50.0 °F - 46.9 °F 89% 29.98 in - Calm Calm - N/A   Unknown
8:53 AM 51.1 °F - 48.0 °F 89% 30.00 in - ENE 10.4 mph - 0.01 in   Unknown
9:53 AM 50.0 °F - 48.0 °F 93% 30.05 in - NE 5.8 mph - 0.07 in   Unknown
10:53 AM 48.9 °F - 45.0 °F 86% 30.09 in - NE 8.1 mph - 0.07 in   Unknown
11:53 AM 50.0 °F - 46.0 °F 86% 30.05 in - South 10.4 mph - 0.02 in   Unknown
12:53 PM 54.0 °F - 46.0 °F 75% 30.01 in - ESE 4.6 mph - N/A   Unknown
1:53 PM 57.9 °F - 44.1 °F 60% 29.97 in - WSW 3.5 mph - N/A   Unknown
2:53 PM 61.0 °F - 44.1 °F 54% 29.94 in - SW 6.9 mph - N/A   Unknown
3:53 PM 55.0 °F - 44.1 °F 67% 29.98 in - NE 15.0 mph - N/A   Unknown
3:57 PM 54.0 °F - 45.0 °F 72% 30.12 in - NE 11.5 mph - N/A   Unknown
4:53 PM 57.0 °F - 43.0 °F 59% 29.95 in - West 3.5 mph - N/A   Unknown
5:53 PM 57.0 °F - 43.0 °F 59% 29.95 in - SW 3.5 mph - N/A   Unknown
6:53 PM 53.1 °F - 44.1 °F 71% 29.96 in - West 3.5 mph - N/A   Unknown
7:53 PM 48.9 °F - 44.1 °F 83% 29.98 in - ESE 3.5 mph - N/A   Unknown
8:53 PM 48.9 °F - 44.1 °F 83% 29.99 in - South 3.5 mph - N/A   Unknown
9:53 PM 46.0 °F 43.1 °F 42.1 °F 86% 30.02 in - SSE 5.8 mph - N/A   Unknown
10:53 PM 45.0 °F 42.6 °F 41.0 °F 86% 30.03 in - South 4.6 mph - N/A   Unknown
11:53 PM 42.1 °F 39.2 °F 39.9 °F 92% 30.03 in - SW 4.6 mph - N/A   Unknown